[[{"header":{"parameterUnit":"m.s-1","parameterCategory":1,"la1":30.2991,"la2":30.254,"lo1":-89.0895,"lo2":-89.0444,"dy":0.0017,"dx":0.0017,"nx":28,"ny":28,"refTime":"2024-12-05T09:00:00:Z","depth":0,"parameterNumber":2,"parameterNumberName":"U-component_of_WINDS"},"data":[0,0,0,0,0,0,0,0,0,0,0,0,0,0,0,0,0,0,0,0,0,0,0,0,0,0,0,0,0,0,0,0,0,0,0,0,0,0,0,0,0,0,0,0,0,0,0,0,0,0,0,0,0,0,0,0,0,0,-1.8386,-1.8384,0,-1.8213,-1.8211,-1.8209,-1.8146,-1.8146,-1.8147,-1.8147,-1.7958,-1.7953,-1.7947,0,0,0,0,0,0,0,0,0,0,0,0,0,-1.8647,-1.8642,-1.8386,-1.8384,-1.8382,-1.8213,-1.8211,-1.8208,-1.8145,-1.8146,-1.8147,-1.8148,-1.796,-1.7953,-1.7947,0,0,0,0,0,0,0,0,0,0,0,0,0,-1.8509,-1.8641,-1.8386,-1.833,-1.8324,-1.8214,-1.8211,-1.8208,-1.8145,-1.8146,-1.8147,-1.8148,-1.7962,-1.7954,-1.7946,-1.7875,0,0,-1.792,-1.7916,0,0,0,0,0,0,0,0,-1.8517,-1.85,-1.8341,-1.8334,-1.8326,-1.8202,-1.8233,-1.8096,-1.8145,-1.8213,-1.8147,-1.8148,-1.8038,-1.8023,-1.7988,-1.7866,-1.7858,-1.7919,-1.7914,-1.7911,-1.7908,0,0,0,0,0,0,0,-1.8527,-1.8507,-1.8317,-1.8338,-1.8329,-1.8309,-1.829,-1.8207,-1.8122,-1.8207,-1.8202,-1.8183,-1.8034,-1.7997,-1.7983,-1.7856,-1.792,-1.7912,-1.7907,-1.7904,-1.7658,-1.7657,0,0,0,0,0,0,-1.8547,-1.8515,-1.8323,-1.8312,-1.8426,-1.8303,-1.8283,-1.8241,-1.8123,-1.8106,-1.8182,-1.8181,-1.8011,-1.7993,-1.7977,-1.7882,-1.7911,-1.7903,-1.7898,-1.766,-1.7658,-1.7657,0,0,0,0,0,0,-1.8553,-1.8531,-1.833,-1.8412,-1.8385,-1.8298,-1.8251,-1.8237,-1.82,-1.8104,-1.8087,-1.8161,-1.8011,-1.7988,-1.79,-1.7874,-1.7899,-1.7891,-1.7662,-1.7659,-1.7657,-1.7695,0,0,0,0,0,0,-1.8561,-1.8534,-1.851,-1.8412,-1.8381,-1.8261,-1.825,-1.8233,-1.8187,-1.8183,-1.808,-1.8063,-1.801,-1.7913,-1.7892,-1.7863,-1.7885,-1.7664,-1.7661,-1.7658,-1.7696,-1.7694,-1.7693,0,0,0,0,0,-1.8571,-1.8527,-1.8509,-1.8486,-1.835,-1.826,-1.8242,-1.8184,-1.8185,-1.8158,-1.8095,-1.8066,-1.7881,-1.7905,-1.788,-1.7849,-1.7665,-1.7661,-1.7658,-1.7696,-1.7695,-1.7693,0,0,0,0,0,0,-1.8621,-1.8513,-1.8493,-1.8417,-1.8348,-1.825,-1.8214,-1.8185,-1.8113,-1.8112,-1.8039,-1.8016,-1.7933,-1.7881,-1.791,-1.777,-1.777,-1.7762,-1.7807,-1.7805,-1.7804,-1.7817,-1.7878,0,0,0,0,0,-1.8624,-1.8565,-1.8471,-1.8412,-1.8379,-1.8303,-1.8261,-1.8223,-1.8147,-1.8117,-1.8048,-1.7973,-1.7896,-1.7848,-1.7773,-1.7687,-1.766,-1.7653,-1.7652,-1.7651,-1.7644,-1.7588,-1.7583,-1.7646,-1.7646,-1.7646,0,0,-1.8629,-1.8562,-1.8528,-1.8421,-1.8364,-1.8298,-1.8279,-1.8212,-1.816,-1.8105,-1.8019,-1.7964,-1.7874,-1.7786,-1.7743,-1.774,-1.762,-1.7647,-1.7647,-1.7641,-1.7585,-1.7579,-1.7573,-1.7644,-1.7644,-1.7644,0,0,-1.8603,-1.8549,-1.8492,-1.8434,-1.8348,-1.8296,-1.8282,-1.8186,-1.8149,-1.8061,-1.8017,-1.7951,-1.7824,-1.776,-1.7711,-1.7653,-1.7622,-1.763,-1.7624,-1.757,-1.7565,-1.756,-1.7536,-1.7528,-1.7624,-1.7624,-1.7624,0,-1.8619,-1.8523,-1.8465,-1.8399,-1.835,-1.8299,-1.8237,-1.8182,-1.8075,-1.8039,-1.8039,-1.7873,-1.7809,-1.7702,-1.7688,-1.7651,-1.7627,-1.7642,-1.7572,-1.7566,-1.756,-1.7536,-1.7527,-1.7625,-1.7625,-1.7625,-1.7625,0,-1.8543,-1.8477,-1.844,-1.834,-1.8286,-1.8223,-1.8149,-1.8101,-1.8065,-1.8011,-1.7917,-1.7838,-1.7744,-1.7715,-1.7679,-1.76,-1.7601,-1.7587,-1.7585,-1.7557,-1.7532,-1.7523,-1.7627,-1.7627,-1.7626,-1.7626,0,0,-1.8549,-1.8414,-1.8401,-1.8353,-1.8251,-1.8195,-1.8125,-1.8035,-1.7993,-1.7918,-1.7854,-1.7744,-1.7729,-1.7672,-1.7627,-1.7581,-1.7534,-1.7571,-1.7567,-1.7564,-1.7435,-1.7446,-1.7436,-1.7512,-1.751,-1.7509,-1.7441,0,-1.8508,-1.8387,-1.833,-1.8231,-1.8165,-1.8112,-1.805,-1.7977,-1.7923,-1.7854,-1.7792,-1.7715,-1.7703,-1.7667,-1.7619,-1.7551,-1.7507,-1.7554,-1.7446,-1.7443,-1.747,-1.7424,-1.7436,-1.7377,-1.7432,-1.743,-1.7429,0,-1.8446,-1.8373,-1.8269,-1.8169,-1.8139,-1.8086,-1.7995,-1.7932,-1.7845,-1.7808,-1.7743,-1.7699,-1.7616,-1.762,-1.7501,-1.7535,-1.7486,-1.7444,-1.744,-1.7427,-1.7434,-1.7407,-1.7357,-1.7348,-1.7414,-1.7415,-1.7416,0,-1.8457,-1.8332,-1.8252,-1.8212,-1.8095,-1.8057,-1.8005,-1.792,-1.7867,-1.7786,-1.7749,-1.7659,-1.7608,-1.7536,-1.7465,-1.7475,-1.735,-1.735,-1.7313,-1.7314,-1.7289,-1.7292,-1.7229,-1.7261,-1.7261,-1.7261,-1.7262,0,-1.8417,-1.8354,-1.8254,-1.8205,-1.813,-1.8062,-1.7988,-1.7931,-1.7854,-1.7788,-1.7735,-1.7672,-1.7584,-1.7508,-1.7452,-1.7358,-1.7337,-1.73,-1.7285,-1.7304,-1.7308,-1.7271,-1.7272,-1.7259,-1.726,-1.726,-1.726,0,-1.8417,-1.8349,-1.8257,-1.8153,-1.8124,-1.8073,-1.7981,-1.7927,-1.7869,-1.7785,-1.7761,-1.7667,-1.7575,-1.7497,-1.7376,-1.7337,-1.7239,-1.7223,-1.727,-1.7262,-1.7227,-1.7231,-1.7137,-1.7119,-1.7166,-1.7166,-1.7165,0,-1.8396,-1.8347,-1.8236,-1.819,-1.8139,-1.8065,-1.8011,-1.7938,-1.7882,-1.7776,-1.7733,-1.7638,-1.7558,-1.7411,-1.7328,-1.7232,-1.7212,-1.7185,-1.7197,-1.7215,-1.7207,-1.721,-1.7202,-1.7184,-1.7184,-1.7184,-1.7184,0,-1.8365,-1.8332,-1.8259,-1.8171,-1.8108,-1.8035,-1.796,-1.7923,-1.7834,-1.7773,-1.768,-1.7618,-1.7492,-1.7395,-1.7289,-1.7229,-1.7189,-1.7181,-1.7166,-1.7185,-1.7213,-1.7193,-1.7265,-1.7184,-1.7184,-1.7184,-1.7184,-1.7184,-1.8352,-1.8303,-1.8217,-1.8134,-1.807,-1.7999,-1.7942,-1.7876,-1.7798,-1.7693,-1.7652,-1.7555,-1.746,-1.7314,-1.7253,-1.7171,-1.7166,-1.7146,-1.714,-1.7136,-1.7137,-1.7227,-1.7151,-1.7151,-1.7151,-1.7151,-1.7151,0,-1.8315,-1.8256,-1.8181,-1.8077,-1.801,-1.7982,-1.7894,-1.7839,-1.7755,-1.7672,-1.7594,-1.7482,-1.7386,-1.7294,-1.7192,-1.7143,-1.7121,-1.7118,-1.712,-1.7105,-1.715,-1.7171,-1.7137,-1.7137,-1.7137,-1.7137,-1.7137,-1.7137,-1.8289,-1.8203,-1.8159,-1.8038,-1.7976,-1.7884,-1.7836,-1.7767,-1.77,-1.7579,-1.75,-1.7442,-1.7352,-1.7242,-1.715,-1.7124,-1.7087,-1.7088,-1.7058,-1.7101,-1.7103,-1.7106,-1.7125,-1.7082,-1.7081,-1.7019,-1.7019,-1.7019]},{"header":{"parameterUnit":"m.s-1","parameterCategory":1,"la1":30.2991,"la2":30.254,"lo1":-89.0895,"lo2":-89.0444,"dy":0.0017,"dx":0.0017,"nx":28,"ny":28,"refTime":"2024-12-05T09:00:00:Z","depth":0,"parameterNumber":3,"parameterNumberName":"V-component_of_WINDS"},"data":[0,0,0,0,0,0,0,0,0,0,0,0,0,0,0,0,0,0,0,0,0,0,0,0,0,0,0,0,0,0,0,0,0,0,0,0,0,0,0,0,0,0,0,0,0,0,0,0,0,0,0,0,0,0,0,0,0,0,-0.0931,-0.0931,0,-0.0964,-0.0964,-0.0964,-0.0982,-0.0982,-0.0982,-0.0982,-0.1017,-0.1017,-0.1018,0,0,0,0,0,0,0,0,0,0,0,0,0,-0.0883,-0.0884,-0.0931,-0.0931,-0.0932,-0.0964,-0.0964,-0.0965,-0.0982,-0.0982,-0.0982,-0.0982,-0.1016,-0.1017,-0.1018,0,0,0,0,0,0,0,0,0,0,0,0,0,-0.0909,-0.0884,-0.0931,-0.0944,-0.0946,-0.0964,-0.0964,-0.0965,-0.0982,-0.0982,-0.0982,-0.0982,-0.1016,-0.1017,-0.1019,-0.1026,0,0,-0.1023,-0.1023,0,0,0,0,0,0,0,0,-0.0907,-0.091,-0.0942,-0.0943,-0.0945,-0.0969,-0.096,-0.0985,-0.0982,-0.0968,-0.0982,-0.0982,-0.1001,-0.1003,-0.1009,-0.1028,-0.1029,-0.1023,-0.1024,-0.1024,-0.1025,0,0,0,0,0,0,0,-0.0905,-0.0909,-0.0944,-0.0942,-0.0944,-0.0948,-0.0952,-0.0965,-0.0984,-0.0969,-0.097,-0.0974,-0.1002,-0.1008,-0.101,-0.103,-0.1023,-0.1024,-0.1025,-0.1025,-0.1055,-0.1055,0,0,0,0,0,0,-0.0901,-0.0907,-0.0943,-0.0945,-0.0926,-0.0949,-0.0953,-0.0961,-0.0984,-0.0987,-0.0974,-0.0975,-0.1006,-0.1009,-0.1012,-0.1022,-0.1024,-0.1026,-0.1026,-0.1055,-0.1055,-0.1055,0,0,0,0,0,0,-0.09,-0.0904,-0.0942,-0.0927,-0.0932,-0.095,-0.0958,-0.0962,-0.0968,-0.0987,-0.0991,-0.0977,-0.1006,-0.101,-0.1022,-0.1023,-0.1026,-0.1027,-0.1055,-0.1055,-0.1055,-0.1042,0,0,0,0,0,0,-0.0899,-0.0904,-0.0907,-0.0926,-0.0932,-0.0951,-0.0958,-0.0962,-0.097,-0.0972,-0.0991,-0.0995,-0.1006,-0.102,-0.1023,-0.1025,-0.1028,-0.1055,-0.1055,-0.1055,-0.1042,-0.1041,-0.104,0,0,0,0,0,-0.0897,-0.0903,-0.0907,-0.0911,-0.0937,-0.0952,-0.0955,-0.0968,-0.097,-0.0974,-0.0986,-0.0994,-0.1022,-0.1021,-0.1025,-0.1027,-0.1055,-0.1055,-0.1055,-0.1043,-0.1041,-0.104,0,0,0,0,0,0,-0.0884,-0.0906,-0.0911,-0.0923,-0.0935,-0.0954,-0.0959,-0.0966,-0.0979,-0.0979,-0.0995,-0.0999,-0.101,-0.102,-0.1018,-0.1035,-0.1039,-0.104,-0.1029,-0.1028,-0.1027,-0.1024,-0.103,0,0,0,0,0,-0.0882,-0.0892,-0.0911,-0.0919,-0.0925,-0.0941,-0.0948,-0.0957,-0.097,-0.0976,-0.0989,-0.1002,-0.1013,-0.1021,-0.1033,-0.1043,-0.1047,-0.1046,-0.1045,-0.1045,-0.1045,-0.1051,-0.105,-0.1055,-0.1055,-0.1055,0,0,-0.0879,-0.0892,-0.0898,-0.0917,-0.0928,-0.0937,-0.0945,-0.0956,-0.0963,-0.0977,-0.099,-0.0999,-0.1015,-0.1026,-0.1032,-0.1034,-0.1045,-0.1045,-0.1044,-0.1045,-0.105,-0.105,-0.105,-0.1055,-0.1055,-0.1055,0,0,-0.0879,-0.089,-0.0898,-0.0908,-0.0923,-0.0933,-0.0935,-0.0953,-0.096,-0.0972,-0.0983,-0.0992,-0.1012,-0.1022,-0.103,-0.1031,-0.1039,-0.1034,-0.103,-0.1035,-0.1035,-0.1034,-0.1035,-0.1034,-0.1035,-0.1035,-0.1035,0,-0.0874,-0.0889,-0.0901,-0.0911,-0.0919,-0.093,-0.0939,-0.0948,-0.0966,-0.0972,-0.0974,-0.0998,-0.101,-0.1023,-0.1023,-0.1029,-0.1032,-0.1033,-0.1034,-0.1033,-0.1033,-0.1034,-0.1034,-0.1034,-0.1034,-0.1034,-0.1034,0,-0.0881,-0.0891,-0.0896,-0.0913,-0.0921,-0.093,-0.0943,-0.095,-0.0957,-0.0967,-0.0979,-0.0992,-0.1007,-0.101,-0.1018,-0.1024,-0.1026,-0.1031,-0.1035,-0.1032,-0.1033,-0.1033,-0.1033,-0.1034,-0.1034,-0.1034,0,0,-0.0875,-0.0897,-0.0899,-0.0906,-0.0923,-0.0931,-0.094,-0.0953,-0.0958,-0.097,-0.0978,-0.0993,-0.0998,-0.1006,-0.1015,-0.102,-0.1019,-0.1024,-0.1025,-0.1022,-0.1026,-0.1022,-0.1022,-0.1024,-0.1024,-0.1024,-0.1024,0,-0.0877,-0.0893,-0.0904,-0.0916,-0.0925,-0.0935,-0.0943,-0.0954,-0.0963,-0.0972,-0.0982,-0.0992,-0.0997,-0.1002,-0.1007,-0.1018,-0.102,-0.1018,-0.1031,-0.1031,-0.1027,-0.1022,-0.1019,-0.1019,-0.1025,-0.1025,-0.1025,0,-0.0883,-0.0893,-0.0905,-0.092,-0.0924,-0.0931,-0.0943,-0.0952,-0.0964,-0.097,-0.0979,-0.0987,-0.0996,-0.0999,-0.1012,-0.1011,-0.1016,-0.1022,-0.1022,-0.1025,-0.1028,-0.1024,-0.1019,-0.1019,-0.1025,-0.1025,-0.1025,0,-0.0877,-0.0894,-0.0903,-0.0909,-0.0926,-0.0931,-0.0938,-0.095,-0.0957,-0.0968,-0.0972,-0.0984,-0.099,-0.0999,-0.101,-0.1012,-0.1021,-0.1026,-0.1027,-0.1026,-0.1029,-0.1029,-0.1025,-0.1032,-0.1032,-0.1032,-0.1032,0,-0.0878,-0.0886,-0.0901,-0.0907,-0.0915,-0.0926,-0.0934,-0.0942,-0.0953,-0.096,-0.097,-0.0976,-0.0991,-0.0999,-0.1008,-0.1016,-0.1019,-0.1024,-0.1027,-0.1024,-0.1023,-0.1028,-0.1029,-0.1032,-0.1032,-0.1032,-0.1032,0,-0.0874,-0.0884,-0.0895,-0.091,-0.0914,-0.0919,-0.0932,-0.0937,-0.0946,-0.0955,-0.0958,-0.0971,-0.0981,-0.0993,-0.1007,-0.1013,-0.1021,-0.1025,-0.1017,-0.1018,-0.1019,-0.1018,-0.1018,-0.1019,-0.1025,-0.1025,-0.1025,0,-0.0875,-0.088,-0.0895,-0.09,-0.0907,-0.0916,-0.0922,-0.0933,-0.0939,-0.0953,-0.0957,-0.0967,-0.0977,-0.0992,-0.1003,-0.1014,-0.1018,-0.1017,-0.102,-0.1016,-0.1018,-0.1017,-0.1018,-0.1016,-0.1016,-0.1016,-0.1016,0,-0.0875,-0.0879,-0.0888,-0.0898,-0.0905,-0.0914,-0.0923,-0.0927,-0.094,-0.0946,-0.0956,-0.0963,-0.0977,-0.0987,-0.0999,-0.1006,-0.1013,-0.1015,-0.1016,-0.1013,-0.1008,-0.1011,-0.1015,-0.1015,-0.1015,-0.1015,-0.1015,-0.1015,-0.0873,-0.0878,-0.0888,-0.0898,-0.0905,-0.0913,-0.0919,-0.0927,-0.0936,-0.0947,-0.0953,-0.0963,-0.0974,-0.099,-0.0997,-0.1004,-0.1007,-0.1008,-0.1009,-0.1009,-0.1008,-0.1006,-0.1007,-0.1007,-0.1007,-0.1007,-0.1007,0,-0.0873,-0.088,-0.0888,-0.09,-0.0907,-0.0912,-0.0921,-0.0927,-0.0935,-0.0944,-0.0953,-0.0964,-0.0973,-0.0984,-0.0994,-0.0998,-0.1001,-0.1,-0.1001,-0.1002,-0.1005,-0.1003,-0.0997,-0.0997,-0.0997,-0.0997,-0.0997,-0.0997,-0.0875,-0.0883,-0.0888,-0.09,-0.0907,-0.0916,-0.0921,-0.0928,-0.0935,-0.0947,-0.0954,-0.0961,-0.0971,-0.0981,-0.099,-0.0993,-0.0996,-0.0994,-0.0998,-0.1001,-0.1002,-0.1003,-0.1001,-0.0995,-0.0995,-0.0995,-0.0995,-0.0995]}]]